Time,TemperatureF,DewpointF,PressureIn,WindDirection,WindDirectionDegrees,WindSpeedMPH,WindSpeedGustMPH,Humidity,HourlyPrecipIn,Conditions,Clouds,dailyrainin,SoftwareType,DateUTC
2013-08-25 10:53:00,57.0,57.0,25.83,North,355,0.0,1.0,100,0.00,,,0.00,,2013-08-25 17:53:00,
2013-08-25 11:12:00,57.0,57.0,25.83,North,0,0.0,1.0,100,0.00,,,0.00,,2013-08-25 18:12:00,
2013-08-25 11:21:00,58.0,58.0,25.83,North,0,0.0,1.0,100,0.00,,,0.00,,2013-08-25 18:21:00,
2013-08-25 11:52:00,58.0,58.0,25.83,North,0,0.0,1.0,100,0.05,,,0.05,,2013-08-25 18:52:00,
2013-08-25 12:11:00,58.0,58.0,25.83,South,182,1.0,4.0,99,0.07,,,0.07,,2013-08-25 19:11:00,
2013-08-25 12:22:00,58.0,58.0,25.83,South,182,1.0,4.0,99,0.07,,,0.07,,2013-08-25 19:22:00,
2013-08-25 12:53:00,58.0,58.0,25.83,South,179,1.0,5.0,99,0.05,,,0.07,,2013-08-25 19:53:00,
2013-08-25 13:12:00,57.0,57.0,25.83,SSE,166,4.0,7.0,99,0.01,,,0.08,,2013-08-25 20:12:00,
2013-08-25 13:23:00,57.0,57.0,25.83,SSE,165,1.0,7.0,99,0.01,,,0.08,,2013-08-25 20:23:00,
2013-08-25 13:33:00,57.0,57.0,25.83,SSE,165,1.0,7.0,99,0.01,,,0.08,,2013-08-25 20:33:00,
2013-08-25 13:43:00,57.0,57.0,25.83,SSE,165,1.0,7.0,99,0.01,,,0.08,,2013-08-25 20:43:00,
2013-08-25 13:52:00,58.0,58.0,25.83,SSW,202,1.0,3.0,99,0.01,,,0.08,,2013-08-25 20:52:00,
2013-08-25 14:12:00,59.0,58.0,25.83,SSW,202,0.0,2.0,98,0.00,,,0.08,,2013-08-25 21:12:00,
2013-08-25 14:22:00,59.0,58.0,25.83,SSW,202,0.0,2.0,98,0.00,,,0.08,,2013-08-25 21:22:00,
2013-08-25 14:55:00,58.0,57.0,25.83,SW,214,1.0,4.0,97,0.00,,,0.08,,2013-08-25 21:55:00,
2013-08-25 15:24:00,59.0,58.0,25.83,SE,146,0.0,3.0,97,0.01,,,0.09,,2013-08-25 22:24:00,
2013-08-25 15:53:00,60.0,59.0,25.83,SSE,149,0.0,3.0,96,0.01,,,0.09,,2013-08-25 22:53:00,
2013-08-25 16:12:00,58.0,57.0,25.83,SSW,209,3.0,5.0,96,0.00,,,0.09,,2013-08-25 23:12:00,
2013-08-25 16:23:00,58.0,57.0,25.83,SW,228,2.0,5.0,96,0.00,,,0.09,,2013-08-25 23:23:00,
2013-08-25 16:33:00,58.0,57.0,25.83,SW,228,2.0,5.0,96,0.00,,,0.09,,2013-08-25 23:33:00,
2013-08-25 16:42:00,58.0,57.0,25.83,SW,228,2.0,5.0,96,0.00,,,0.09,,2013-08-25 23:42:00,
2013-08-25 16:53:00,58.0,57.0,25.83,SW,228,2.0,5.0,96,0.00,,,0.09,,2013-08-25 23:53:00,
2013-08-25 17:11:00,58.0,57.0,25.83,SW,228,3.0,7.0,97,0.00,,,0.09,,2013-08-26 00:11:00,
2013-08-25 17:22:00,58.0,57.0,25.83,South,172,1.0,6.0,97,0.00,,,0.09,,2013-08-26 00:22:00,
2013-08-25 17:41:00,58.0,57.0,25.83,SSW,194,1.0,6.0,96,0.00,,,0.09,,2013-08-26 00:41:00,
2013-08-25 17:52:00,58.0,57.0,25.83,SSW,209,4.0,6.0,96,0.00,,,0.09,,2013-08-26 00:52:00,
2013-08-25 18:11:00,59.0,58.0,25.83,West,263,3.0,5.0,96,0.00,,,0.09,,2013-08-26 01:11:00,
2013-08-25 18:22:00,59.0,58.0,25.83,West,263,3.0,5.0,96,0.00,,,0.09,,2013-08-26 01:22:00,
2013-08-25 18:42:00,59.0,57.0,25.83,SW,234,2.0,5.0,94,0.00,,,0.09,,2013-08-26 01:42:00,
2013-08-25 18:52:00,59.0,58.0,25.83,South,185,0.0,3.0,95,0.00,,,0.09,,2013-08-26 01:52:00,
2013-08-25 19:21:00,58.0,57.0,25.83,SW,217,2.0,4.0,95,0.00,,,0.09,,2013-08-26 02:21:00,
2013-08-25 19:42:00,58.0,57.0,25.83,SW,217,0.0,3.0,96,0.00,,,0.09,,2013-08-26 02:42:00,
2013-08-25 19:52:00,58.0,57.0,25.83,SW,217,0.0,3.0,96,0.00,,,0.09,,2013-08-26 02:52:00,
2013-08-25 20:02:00,58.0,57.0,25.83,SW,217,0.0,3.0,96,0.00,,,0.09,,2013-08-26 03:02:00,